Location: OLV Amersfoort
(52.1552°N, 5.3872°E)
Time: 01:56:28
(UTC+02:00)

ISS - Visible Passes

Search period start: 01 October 2014 00:00
Search period end: 11 October 2014 00:00
Orbit: 413 x 416 km, 51.6° (Epoch: 30 September)

Date Brightness Start Highest point End Pass type
(mag) Time Alt. Az. Time Alt. Az. Time Alt. Az.
07 Oct -0.9 20:25:57 10° SSE 20:26:20 11° SSE 20:26:20 11° SSE visible
08 Oct -1.2 21:11:08 10° SW 21:12:21 19° SSW 21:12:21 19° SSW visible
09 Oct -1.9 20:22:19 10° SSW 20:25:00 23° SSE 20:25:20 22° SE visible
09 Oct -0.2 21:58:00 10° WSW 21:58:11 11° WSW 21:58:11 11° WSW visible
10 Oct -1.3 19:33:47 10° S 19:35:53 16° SE 19:37:59 10° ESE visible
10 Oct -2.1 21:08:47 10° WSW 21:11:02 36° SW 21:11:02 36° SW visible
